| time (UTC) | temp F | wind direction | speed knots | gust knots | rain 1hr in | rain 24hr in | rain mn in | humidity % | barometer mb |
| 20260505095123 | 67 | 154 | 2.6 | 4.3 | 0.00 | 0.00 | 0.00 | 51 | 912.0 |
| 20260505094623 | 67 | 179 | 3.5 | 9.6 | 0.00 | 0.00 | 0.00 | 51 | 911.9 |
| 20260505094123 | 67 | 148 | 4.3 | 11.3 | 0.00 | 0.00 | 0.00 | 52 | 911.8 |
| 20260505093623 | 67 | 147 | 3.5 | 11.3 | 0.00 | 0.00 | 0.00 | 51 | 911.8 |
| 20260505093123 | 67 | 145 | 5.2 | 5.2 | 0.00 | 0.00 | 0.00 | 51 | 911.7 |
| 20260505092623 | 67 | 163 | 6.1 | 13.9 | 0.00 | 0.00 | 0.00 | 51 | 911.7 |
| 20260505092123 | 67 | 147 | 4.3 | 11.3 | 0.00 | 0.00 | 0.00 | 51 | 911.7 |
| 20260505091623 | 68 | 146 | 3.5 | 13.9 | 0.00 | 0.00 | 0.00 | 51 | 911.8 |
| 20260505091123 | 68 | 143 | 2.6 | 7.8 | 0.00 | 0.00 | 0.00 | 51 | 911.5 |
| 20260505090623 | 68 | 145 | 3.5 | 4.3 | 0.00 | 0.00 | 0.00 | 51 | 911.6 |
| 20260505090123 | 68 | 143 | 4.3 | 10.4 | 0.00 | 0.00 | 0.00 | 51 | 911.5 |
| 20260505085623 | 68 | 153 | 4.3 | 9.6 | 0.00 | 0.00 | 0.00 | 50 | 911.4 |
| 20260505085123 | 69 | 152 | 4.3 | 11.3 | 0.00 | 0.00 | 0.00 | 50 | 911.5 |
| 20260505084623 | 69 | 149 | 4.3 | 10.4 | 0.00 | 0.00 | 0.00 | 50 | 911.5 |
| 20260505084123 | 69 | 145 | 5.2 | 9.6 | 0.00 | 0.00 | 0.00 | 49 | 911.5 |
| 20260505083623 | 69 | 158 | 7.0 | 11.3 | 0.00 | 0.00 | 0.00 | 49 | 911.4 |
| 20260505083123 | 69 | 139 | 6.1 | 14.8 | 0.00 | 0.00 | 0.00 | 48 | 911.3 |
| 20260505082623 | 70 | 146 | 4.3 | 9.6 | 0.00 | 0.00 | 0.00 | 48 | 911.3 |
| 20260505082123 | 70 | 147 | 4.3 | 10.4 | 0.00 | 0.00 | 0.00 | 47 | 911.4 |
| 20260505081623 | 70 | 146 | 4.3 | 10.4 | 0.00 | 0.00 | 0.00 | 47 | 911.3 |
| 20260505081123 | 70 | 151 | 3.5 | 11.3 | 0.00 | 0.00 | 0.00 | 46 | 911.3 |
| 20260505080623 | 70 | 133 | 3.5 | 7.0 | 0.00 | 0.00 | 0.00 | 45 | 911.2 |
| 20260505080123 | 70 | 143 | 4.3 | 8.7 | 0.00 | 0.00 | 0.00 | 45 | 911.2 |
| 20260505075623 | 70 | 147 | 3.5 | 8.7 | 0.00 | 0.00 | 0.00 | 44 | 911.2 |
| 20260505075123 | 70 | 145 | 4.3 | 10.4 | 0.00 | 0.00 | 0.00 | 45 | 911.1 |
| 20260505074623 | 71 | 152 | 4.3 | 13.0 | 0.00 | 0.00 | 0.00 | 44 | 911.2 |
| 20260505074123 | 70 | 154 | 5.2 | 13.0 | 0.00 | 0.00 | 0.00 | 44 | 911.2 |
| 20260505073623 | 71 | 147 | 5.2 | 12.2 | 0.00 | 0.00 | 0.00 | 44 | 911.1 |
| 20260505073123 | 71 | 150 | 4.3 | 12.2 | 0.00 | 0.00 | 0.00 | 44 | 911.1 |
| 20260505072623 | 71 | 151 | 3.5 | 7.8 | 0.00 | 0.00 | 0.00 | 44 | 911.1 |
| 20260505072123 | 71 | 143 | 5.2 | 13.0 | 0.00 | 0.00 | 0.00 | 45 | 911.1 |
| 20260505071623 | 71 | 162 | 5.2 | 13.0 | 0.00 | 0.00 | 0.00 | 44 | 911.0 |
| 20260505071123 | 71 | 145 | 4.3 | 8.7 | 0.00 | 0.00 | 0.00 | 44 | 911.0 |
| 20260505070623 | 72 | 158 | 4.3 | 9.6 | 0.00 | 0.00 | 0.00 | 44 | 910.9 |
| 20260505070123 | 72 | 161 | 4.3 | 9.6 | 0.00 | 0.01 | 0.00 | 44 | 910.9 |
| 20260505065623 | 71 | 141 | 5.2 | 10.4 | 0.00 | 0.01 | 0.00 | 44 | 910.9 |
| 20260505065123 | 72 | 313 | 5.2 | 12.2 | 0.00 | 0.01 | 0.00 | 45 | 910.8 |
| 20260505064623 | 71 | 152 | 6.1 | 9.6 | 0.00 | 0.01 | 0.00 | 45 | 910.9 |
| 20260505064123 | 71 | 141 | 6.1 | 15.6 | 0.00 | 0.01 | 0.00 | 45 | 910.8 |
| 20260505063623 | 71 | 148 | 6.1 | 12.2 | 0.00 | 0.01 | 0.00 | 46 | 910.7 |
| 20260505063123 | 72 | 152 | 5.2 | 12.2 | 0.00 | 0.01 | 0.00 | 45 | 910.7 |
| 20260505062623 | 72 | 145 | 5.2 | 12.2 | 0.00 | 0.01 | 0.00 | 45 | 910.8 |
| 20260505062123 | 72 | 152 | 5.2 | 9.6 | 0.00 | 0.01 | 0.00 | 45 | 910.9 |
| 20260505061623 | 72 | 139 | 4.3 | 9.6 | 0.00 | 0.01 | 0.00 | 45 | 910.8 |
| 20260505061123 | 72 | 144 | 5.2 | 9.6 | 0.00 | 0.01 | 0.00 | 45 | 910.8 |
| 20260505060623 | 72 | 172 | 4.3 | 12.2 | 0.00 | 0.01 | 0.00 | 44 | 910.7 |
| 20260505060124 | 72 | 359 | 4.3 | 11.3 | 0.00 | 0.01 | 0.00 | 44 | 910.6 |
| 20260505055623 | 72 | 135 | 5.2 | 7.8 | 0.00 | 0.01 | 0.00 | 44 | 910.6 |
| 20260505055124 | 72 | 145 | 7.0 | 15.6 | 0.00 | 0.01 | 0.00 | 43 | 910.5 |
| 20260505054623 | 72 | 158 | 6.1 | 13.9 | 0.00 | 0.01 | 0.00 | 43 | 910.6 |
| 20260505054123 | 72 | 174 | 4.3 | 12.2 | 0.00 | 0.01 | 0.00 | 43 | 910.6 |
| 20260505053623 | 72 | 141 | 5.2 | 9.6 | 0.00 | 0.01 | 0.00 | 42 | 910.5 |
| 20260505053124 | 73 | 141 | 5.2 | 13.9 | 0.00 | 0.01 | 0.00 | 41 | 910.6 |
| 20260505052624 | 73 | 149 | 4.3 | 9.6 | 0.00 | 0.01 | 0.00 | 40 | 910.6 |
| 20260505052124 | 73 | 145 | 5.2 | 13.9 | 0.00 | 0.01 | 0.00 | 38 | 910.6 |
| 20260505051624 | 73 | 143 | 5.2 | 12.2 | 0.00 | 0.01 | 0.00 | 37 | 910.6 |
| 20260505051124 | 73 | 137 | 4.3 | 10.4 | 0.00 | 0.01 | 0.00 | 37 | 910.6 |
| 20260505050624 | 73 | 106 | 4.3 | 12.2 | 0.00 | 0.01 | 0.00 | 35 | 910.5 |
| 20260505050124 | 73 | 130 | 4.3 | 12.2 | 0.00 | 0.01 | 0.00 | 35 | 910.5 |
| 20260505041624 | 73 | 143 | 3.5 | 7.8 | 0.00 | 0.01 | 0.00 | 32 | 910.5 |
| 20260505041124 | 73 | 145 | 3.5 | 7.8 | 0.00 | 0.01 | 0.00 | 31 | 910.5 |
| 20260505040624 | 73 | 149 | 2.6 | 7.0 | 0.00 | 0.01 | 0.00 | 31 | 910.6 |
| 20260505040124 | 73 | 139 | 2.6 | 7.8 | 0.00 | 0.01 | 0.00 | 31 | 910.5 |
| 20260505035624 | 73 | 177 | 2.6 | 6.1 | 0.00 | 0.01 | 0.00 | 31 | 910.5 |
| 20260505035124 | 73 | 146 | 2.6 | 5.2 | 0.00 | 0.01 | 0.00 | 30 | 910.6 |
| 20260505034624 | 73 | 153 | 2.6 | 9.6 | 0.00 | 0.01 | 0.00 | 29 | 910.5 |
| 20260505034124 | 73 | 137 | 1.7 | 3.5 | 0.00 | 0.01 | 0.00 | 29 | 910.5 |
| 20260505033624 | 72 | 149 | 1.7 | 7.0 | 0.00 | 0.01 | 0.00 | 29 | 910.6 |
| 20260505033124 | 72 | 170 | 0.9 | 4.3 | 0.00 | 0.01 | 0.00 | 30 | 910.6 |
| 20260505032624 | 71 | 46 | 1.7 | 3.5 | 0.00 | 0.01 | 0.00 | 30 | 910.6 |
| 20260505032124 | 71 | 208 | 1.7 | 7.8 | 0.00 | 0.01 | 0.00 | 29 | 910.7 |
| 20260505031624 | 70 | 142 | 0.9 | 4.3 | 0.00 | 0.01 | 0.00 | 29 | 910.7 |
| 20260505031124 | 70 | 9 | 0.9 | 2.6 | 0.00 | 0.01 | 0.00 | 30 | 910.7 |
| 20260505030624 | 69 | 159 | 1.7 | 5.2 | 0.00 | 0.01 | 0.00 | 31 | 910.9 |
| 20260505030124 | 70 | 193 | 2.6 | 4.3 | 0.00 | 0.01 | 0.00 | 31 | 910.9 |
| 20260505025624 | 70 | 196 | 1.7 | 8.7 | 0.00 | 0.01 | 0.00 | 31 | 910.9 |
| 20260505025124 | 69 | 217 | 0.9 | 2.6 | 0.00 | 0.01 | 0.00 | 31 | 910.8 |
| 20260505024624 | 68 | 39 | 0.9 | 1.7 | 0.00 | 0.01 | 0.00 | 32 | 910.8 |
| 20260505024124 | 68 | 34 | 0.9 | 2.6 | 0.00 | 0.01 | 0.00 | 36 | 910.9 |
| 20260505023624 | 67 | 32 | 0.9 | 2.6 | 0.00 | 0.01 | 0.00 | 34 | 910.9 |
| 20260505023124 | 67 | 29 | 1.7 | 2.6 | 0.00 | 0.01 | 0.00 | 34 | 910.8 |
| 20260505022624 | 66 | 26 | 0.9 | 4.3 | 0.00 | 0.01 | 0.00 | 32 | 910.9 |
| 20260505022124 | 66 | 44 | 1.7 | 1.7 | 0.00 | 0.01 | 0.00 | 32 | 911.0 |
| 20260505021624 | 65 | 46 | 3.5 | 7.0 | 0.00 | 0.01 | 0.00 | 37 | 911.2 |
| 20260505021124 | 65 | 348 | 4.3 | 7.8 | 0.00 | 0.01 | 0.00 | 41 | 911.3 |
| 20260505020624 | 65 | 25 | 3.5 | 7.8 | 0.00 | 0.01 | 0.00 | 39 | 911.3 |
| 20260505020124 | 65 | 10 | 1.7 | 7.8 | 0.00 | 0.01 | 0.00 | 36 | 911.4 |
| 20260505015624 | 64 | 17 | 1.7 | 1.7 | 0.00 | 0.01 | 0.00 | 36 | 911.4 |
| 20260505015124 | 64 | 14 | 2.6 | 7.8 | 0.00 | 0.01 | 0.00 | 43 | 911.4 |
| 20260505014624 | 63 | 21 | 2.6 | 7.8 | 0.00 | 0.01 | 0.00 | 51 | 911.4 |
| 20260505014124 | 63 | 35 | 3.5 | 7.0 | 0.00 | 0.01 | 0.00 | 46 | 911.4 |
| 20260505013624 | 63 | 36 | 3.5 | 8.7 | 0.00 | 0.01 | 0.00 | 42 | 911.5 |
| 20260505013124 | 62 | 33 | 2.6 | 7.0 | 0.00 | 0.01 | 0.00 | 46 | 911.5 |
| 20260505012624 | 62 | 33 | 1.7 | 7.8 | 0.00 | 0.01 | 0.00 | 47 | 911.5 |
| 20260505012124 | 62 | 31 | 1.7 | 7.8 | 0.00 | 0.01 | 0.00 | 47 | 911.5 |
| 20260505011624 | 61 | 68 | 1.7 | 3.5 | 0.00 | 0.01 | 0.00 | 48 | 911.5 |
| 20260505011124 | 61 | 30 | 1.7 | 7.8 | 0.00 | 0.01 | 0.00 | 48 | 911.5 |
| 20260505010624 | 61 | 34 | 0.9 | 3.5 | 0.00 | 0.01 | 0.00 | 49 | 911.5 |
| 20260505010124 | 61 | 36 | 1.7 | 5.2 | 0.00 | 0.01 | 0.00 | 50 | 911.5 |
| 20260505005624 | 61 | 30 | 2.6 | 4.3 | 0.00 | 0.01 | 0.00 | 48 | 911.5 |
| 20260505005124 | 60 | 33 | 1.7 | 5.2 | 0.00 | 0.01 | 0.00 | 52 | 911.6 |
| 20260505004624 | 60 | 29 | 2.6 | 5.2 | 0.00 | 0.01 | 0.00 | 51 | 911.5 |
| 20260505004124 | 60 | 35 | 3.5 | 7.8 | 0.00 | 0.01 | 0.00 | 49 | 911.4 |
| 20260505003624 | 60 | 43 | 2.6 | 7.8 | 0.00 | 0.01 | 0.00 | 46 | 911.4 |
| 20260505003124 | 60 | 25 | 3.5 | 5.2 | 0.00 | 0.01 | 0.00 | 50 | 911.4 |
| 20260505002624 | 60 | 26 | 2.6 | 8.7 | 0.00 | 0.01 | 0.00 | 54 | 911.3 |
| 20260505002124 | 59 | 35 | 1.7 | 5.2 | 0.00 | 0.01 | 0.00 | 61 | 911.3 |
| 20260505001624 | 59 | 42 | 1.7 | 4.3 | 0.00 | 0.01 | 0.00 | 52 | 911.3 |
| 20260505001124 | 59 | 28 | 1.7 | 5.2 | 0.00 | 0.01 | 0.00 | 50 | 911.4 |
| 20260505000624 | 59 | 31 | 2.6 | 7.0 | 0.00 | 0.01 | 0.00 | 54 | 911.4 |
| 20260505000124 | 59 | 39 | 1.7 | 4.3 | 0.00 | 0.01 | 0.00 | 53 | 911.4 |
| 20260504235624 | 58 | 42 | 2.6 | 3.5 | 0.00 | 0.01 | 0.00 | 67 | 911.3 |
| 20260504235124 | 58 | 26 | 2.6 | 7.8 | 0.00 | 0.01 | 0.00 | 62 | 911.3 |
| 20260504234624 | 58 | 38 | 3.5 | 7.8 | 0.00 | 0.01 | 0.00 | 55 | 911.3 |
| 20260504234124 | 58 | 35 | 3.5 | 7.8 | 0.00 | 0.01 | 0.00 | 56 | 911.3 |
| 20260504233624 | 57 | 33 | 3.5 | 8.7 | 0.00 | 0.01 | 0.00 | 54 | 911.3 |
| 20260504233124 | 57 | 29 | 4.3 | 8.7 | 0.00 | 0.01 | 0.00 | 57 | 911.4 |
| 20260504232624 | 57 | 38 | 4.3 | 7.8 | 0.00 | 0.01 | 0.00 | 57 | 911.3 |
| 20260504232124 | 57 | 27 | 4.3 | 9.6 | 0.00 | 0.01 | 0.00 | 56 | 911.3 |
| 20260504231624 | 57 | 41 | 3.5 | 8.7 | 0.00 | 0.01 | 0.00 | 60 | 911.4 |
| 20260504231124 | 57 | 37 | 4.3 | 6.1 | 0.00 | 0.01 | 0.00 | 62 | 911.3 |
| 20260504230624 | 56 | 4 | 4.3 | 8.7 | 0.00 | 0.01 | 0.00 | 58 | 911.3 |
| 20260504230124 | 56 | 27 | 3.5 | 9.6 | 0.00 | 0.01 | 0.00 | 58 | 911.3 |
| 20260504225624 | 56 | 9 | 3.5 | 8.7 | 0.00 | 0.01 | 0.00 | 61 | 911.3 |
| 20260504225124 | 56 | 33 | 4.3 | 7.8 | 0.00 | 0.01 | 0.00 | 61 | 911.2 |
| 20260504224624 | 56 | 29 | 4.3 | 9.6 | 0.00 | 0.01 | 0.00 | 65 | 911.3 |
| 20260504224124 | 55 | 31 | 4.3 | 8.7 | 0.00 | 0.01 | 0.00 | 59 | 911.3 |
| 20260504223624 | 55 | 37 | 4.3 | 8.7 | 0.00 | 0.01 | 0.00 | 63 | 911.3 |
| 20260504223125 | 55 | 39 | 3.5 | 7.8 | 0.00 | 0.01 | 0.00 | 63 | 911.2 |
| 20260504222624 | 55 | 37 | 2.6 | 7.8 | 0.00 | 0.01 | 0.00 | 62 | 911.3 |
| 20260504222125 | 55 | 30 | 1.7 | 5.2 | 0.00 | 0.01 | 0.00 | 65 | 911.2 |
| 20260504221625 | 55 | 38 | 0.9 | 3.5 | 0.00 | 0.01 | 0.00 | 64 | 911.2 |
| 20260504221125 | 55 | 35 | 0.0 | 2.6 | 0.00 | 0.01 | 0.00 | 64 | 911.0 |
| 20260504220625 | 55 | 35 | 0.0 | 1.7 | 0.00 | 0.01 | 0.00 | 66 | 911.0 |
| 20260504220125 | 54 | 35 | 0.9 | 1.7 | 0.00 | 0.01 | 0.00 | 66 | 910.9 |
| 20260504215625 | 54 | 34 | 0.9 | 2.6 | 0.00 | 0.01 | 0.00 | 65 | 910.9 |
| 20260504215125 | 54 | 32 | 0.9 | 4.3 | 0.00 | 0.01 | 0.00 | 69 | 910.8 |
| 20260504214625 | 54 | 36 | 0.9 | 4.3 | 0.00 | 0.01 | 0.00 | 69 | 910.8 |
| 20260504214125 | 54 | 39 | 1.7 | 4.3 | 0.00 | 0.01 | 0.00 | 73 | 910.7 |
| 20260504213625 | 54 | 33 | 1.7 | 4.3 | 0.00 | 0.01 | 0.00 | 70 | 910.7 |
| 20260504213125 | 54 | 38 | 1.7 | 4.3 | 0.00 | 0.01 | 0.00 | 67 | 910.6 |
| 20260504212625 | 54 | 37 | 0.9 | 3.5 | 0.00 | 0.01 | 0.00 | 67 | 910.5 |
| 20260504212125 | 54 | 40 | 0.9 | 1.7 | 0.00 | 0.01 | 0.00 | 69 | 910.5 |
| 20260504211625 | 54 | 40 | 0.9 | 1.7 | 0.00 | 0.01 | 0.00 | 68 | 910.5 |
| 20260504211125 | 54 | 41 | 1.7 | 2.6 | 0.00 | 0.01 | 0.00 | 69 | 910.3 |
| 20260504210625 | 54 | 45 | 1.7 | 2.6 | 0.00 | 0.01 | 0.00 | 68 | 910.3 |
| 20260504210125 | 54 | 40 | 1.7 | 4.3 | 0.00 | 0.01 | 0.00 | 74 | 910.0 |
| 20260504205625 | 53 | 32 | 1.7 | 4.3 | 0.00 | 0.01 | 0.00 | 68 | 910.0 |
| 20260504205125 | 53 | 43 | 0.9 | 2.6 | 0.00 | 0.01 | 0.00 | 67 | 909.9 |
| 20260504204625 | 53 | 38 | 0.0 | 0.9 | 0.00 | 0.01 | 0.00 | 69 | 909.9 |
| 20260504204125 | 53 | 40 | 0.0 | 1.7 | 0.00 | 0.01 | 0.00 | 69 | 909.8 |
| 20260504203625 | 53 | 40 | 0.0 | 0.9 | 0.00 | 0.01 | 0.00 | 69 | 909.6 |
| 20260504203125 | 53 | 40 | 0.9 | 1.7 | 0.00 | 0.01 | 0.00 | 68 | 909.5 |
| 20260504202625 | 53 | 39 | 2.6 | 4.3 | 0.00 | 0.01 | 0.00 | 65 | 909.4 |
| 20260504202125 | 53 | 29 | 4.3 | 7.8 | 0.00 | 0.01 | 0.00 | 65 | 909.1 |
| 20260504201625 | 53 | 15 | 5.2 | 8.7 | 0.00 | 0.01 | 0.00 | 64 | 909.0 |
| 20260504201125 | 53 | 21 | 5.2 | 9.6 | 0.00 | 0.01 | 0.00 | 64 | 909.0 |
| 20260504200625 | 53 | 29 | 5.2 | 9.6 | 0.00 | 0.01 | 0.00 | 65 | 908.8 |
| 20260504200125 | 53 | 36 | 4.3 | 8.7 | 0.00 | 0.01 | 0.00 | 64 | 908.8 |
| 20260504195625 | 53 | 46 | 4.3 | 10.4 | 0.00 | 0.01 | 0.00 | 65 | 908.7 |
| 20260504195125 | 53 | 31 | 4.3 | 9.6 | 0.00 | 0.01 | 0.00 | 64 | 908.7 |
| 20260504194625 | 53 | 37 | 3.5 | 6.1 | 0.00 | 0.01 | 0.00 | 67 | 908.7 |
| 20260504194125 | 53 | 33 | 4.3 | 8.7 | 0.00 | 0.01 | 0.00 | 66 | 908.6 |
| 20260504193625 | 53 | 4 | 5.2 | 8.7 | 0.00 | 0.01 | 0.00 | 64 | 908.6 |
| 20260504193125 | 53 | 31 | 5.2 | 9.6 | 0.00 | 0.01 | 0.00 | 64 | 908.6 |
| 20260504192625 | 54 | 14 | 4.3 | 8.7 | 0.00 | 0.01 | 0.00 | 65 | 908.5 |
| 20260504192125 | 54 | 23 | 4.3 | 7.8 | 0.00 | 0.01 | 0.00 | 64 | 908.5 |
| 20260504191625 | 54 | 29 | 4.3 | 9.6 | 0.00 | 0.01 | 0.00 | 66 | 908.5 |
| 20260504191125 | 54 | 15 | 4.3 | 8.7 | 0.00 | 0.01 | 0.00 | 68 | 908.4 |
| 20260504190625 | 54 | 23 | 3.5 | 10.4 | 0.00 | 0.01 | 0.00 | 66 | 908.4 |
| 20260504190125 | 54 | 33 | 3.5 | 7.0 | 0.00 | 0.01 | 0.00 | 69 | 908.4 |
| 20260504185625 | 54 | 25 | 4.3 | 9.6 | 0.00 | 0.01 | 0.00 | 68 | 908.4 |
| 20260504185125 | 54 | 23 | 5.2 | 9.6 | 0.00 | 0.01 | 0.00 | 67 | 908.3 |
| 20260504184625 | 54 | 23 | 4.3 | 8.7 | 0.00 | 0.01 | 0.00 | 66 | 908.2 |
| 20260504184125 | 54 | 33 | 3.5 | 6.1 | 0.00 | 0.01 | 0.00 | 70 | 908.2 |
| 20260504183625 | 54 | 37 | 3.5 | 7.8 | 0.00 | 0.01 | 0.00 | 66 | 908.2 |
| 20260504183125 | 54 | 342 | 4.3 | 7.8 | 0.00 | 0.01 | 0.00 | 68 | 908.1 |
| 20260504182625 | 54 | 43 | 4.3 | 11.3 | 0.00 | 0.01 | 0.00 | 67 | 908.0 |
| 20260504182125 | 54 | 35 | 4.3 | 8.7 | 0.00 | 0.01 | 0.00 | 70 | 907.9 |
| 20260504181625 | 54 | 354 | 4.3 | 9.6 | 0.00 | 0.01 | 0.00 | 65 | 907.8 |
| 20260504181125 | 54 | 33 | 4.3 | 7.8 | 0.00 | 0.01 | 0.00 | 66 | 907.8 |
| 20260504180625 | 54 | 25 | 3.5 | 8.7 | 0.00 | 0.01 | 0.00 | 67 | 907.8 |
| 20260504180125 | 55 | 28 | 5.2 | 7.0 | 0.00 | 0.01 | 0.00 | 69 | 907.6 |
| 20260504175625 | 55 | 20 | 5.2 | 10.4 | 0.00 | 0.01 | 0.00 | 66 | 907.6 |
| 20260504175125 | 55 | 33 | 4.3 | 10.4 | 0.00 | 0.01 | 0.00 | 67 | 907.6 |
| 20260504174625 | 55 | 30 | 5.2 | 9.6 | 0.00 | 0.01 | 0.00 | 70 | 907.6 |
| 20260504174125 | 55 | 31 | 4.3 | 9.6 | 0.00 | 0.01 | 0.00 | 69 | 907.5 |
| 20260504173625 | 55 | 29 | 4.3 | 7.8 | 0.00 | 0.01 | 0.00 | 68 | 907.5 |
| 20260504173125 | 55 | 37 | 4.3 | 7.8 | 0.00 | 0.01 | 0.00 | 67 | 907.4 |
| 20260504172625 | 55 | 14 | 4.3 | 8.7 | 0.00 | 0.01 | 0.00 | 66 | 907.4 |
| 20260504172125 | 55 | 35 | 5.2 | 8.7 | 0.00 | 0.01 | 0.00 | 67 | 907.2 |
| 20260504171625 | 55 | 26 | 5.2 | 10.4 | 0.00 | 0.01 | 0.00 | 67 | 907.1 |
| 20260504171125 | 55 | 35 | 5.2 | 10.4 | 0.00 | 0.01 | 0.00 | 65 | 907.0 |
| 20260504170625 | 56 | 40 | 5.2 | 10.4 | 0.00 | 0.01 | 0.00 | 65 | 907.0 |
| 20260504170125 | 56 | 41 | 6.1 | 10.4 | 0.00 | 0.01 | 0.00 | 66 | 906.9 |
| 20260504160125 | 57 | 29 | 7.0 | 11.3 | 0.00 | 0.01 | 0.01 | 60 | 906.2 |
| 20260504151125 | 57 | 4 | 4.3 | 10.4 | 0.00 | 0.01 | 0.01 | 65 | 905.8 |
| 20260504150626 | 57 | 32 | 4.3 | 11.3 | 0.00 | 0.01 | 0.01 | 65 | 905.9 |
| 20260504150126 | 58 | 43 | 4.3 | 9.6 | 0.00 | 0.01 | 0.01 | 64 | 905.9 |
| 20260504141126 | 58 | 39 | 6.1 | 13.0 | 0.00 | 0.01 | 0.01 | 65 | 905.5 |
| 20260504140626 | 58 | 39 | 6.1 | 11.3 | 0.00 | 0.01 | 0.01 | 62 | 905.6 |
| 20260504140126 | 58 | 33 | 6.1 | 11.3 | 0.00 | 0.01 | 0.01 | 63 | 905.6 |
| 20260504130626 | 59 | 23 | 7.0 | 12.2 | 0.00 | 0.01 | 0.01 | 67 | 904.9 |
| 20260504130126 | 59 | 4 | 7.0 | 13.0 | 0.00 | 0.01 | 0.01 | 63 | 904.9 |
| 20260504120126 | 60 | 28 | 6.1 | 12.2 | 0.00 | 0.01 | 0.01 | 66 | 904.2 |
| 20260504110626 | 60 | 35 | 6.1 | 14.8 | 0.00 | 0.01 | 0.01 | 65 | 903.1 |
| 20260504110126 | 61 | 36 | 5.2 | 14.8 | 0.00 | 0.01 | 0.01 | 67 | 903.1 |
| 20260504100126 | 61 | 16 | 7.0 | 13.0 | 0.00 | 0.01 | 0.01 | 64 | 901.8 |